RYR467T LICJ-EPKK

Flight info

Callsign RYR467T
Flight time 2h 0m
Altitude 37000
Route ROSAS DCT AMANO DCT SOR DCT XOLTA DCT VEBAL DCT OGVUN DCT XOMBA DCT MOCON M985 MEBAN
Aircraft B738/M-SDFGIJ1LRWY/SB1

Departure

Time 2026-05-04 11:16
Airport Falcone–Borsellino Airport (LICJ)

Arrival

Time 2026-05-04 13:17
Airport Kraków John Paul II International Airport (EPKK)
Time Latitude Longitude Altitude Speed Heading
2026-05-04 10:44 38.18552 13.10606 68 ft 0 kts 337°
2026-05-04 11:06 38.18543 13.10611 69 ft 2 kts 337°
2026-05-04 11:06 38.18529 13.10619 69 ft 2 kts 337°
2026-05-04 11:08 38.18495 13.10686 73 ft 0 kts 246°
2026-05-04 11:12 38.18330 13.10464 69 ft 15 kts 226°
2026-05-04 11:12 38.18279 13.10364 67 ft 13 kts 198°
2026-05-04 11:12 38.18206 13.10337 69 ft 11 kts 238°
2026-05-04 11:12 38.18165 13.10220 68 ft 18 kts 246°
2026-05-04 11:13 38.18106 13.10041 65 ft 24 kts 247°
2026-05-04 11:13 38.18038 13.09841 62 ft 24 kts 246°
2026-05-04 11:13 38.17970 13.09639 59 ft 25 kts 248°
2026-05-04 11:13 38.17899 13.09426 53 ft 27 kts 246°
2026-05-04 11:14 38.17823 13.09203 48 ft 27 kts 246°
2026-05-04 11:14 38.17756 13.09003 45 ft 21 kts 248°
2026-05-04 11:14 38.17698 13.08913 45 ft 12 kts 217°
2026-05-04 11:16 38.18328 13.11315 342 ft 172 kts 65°
2026-05-04 11:16 38.18805 13.12732 1096 ft 179 kts 67°
2026-05-04 11:16 38.19318 13.14231 1677 ft 197 kts 67°
2026-05-04 11:17 38.19892 13.15883 2203 ft 220 kts 68°
2026-05-04 11:17 38.20533 13.17760 2869 ft 239 kts 68°
2026-05-04 11:19 38.31524 13.25338 9254 ft 287 kts 20°
2026-05-04 11:19 38.33361 13.26294 10237 ft 289 kts 20°
2026-05-04 11:19 38.35230 13.27266 10924 ft 302 kts 20°
2026-05-04 11:19 38.37238 13.28310 11540 ft 317 kts 20°
2026-05-04 11:20 38.39321 13.29394 12100 ft 333 kts 20°
2026-05-04 11:20 38.41492 13.30524 12780 ft 345 kts 20°
2026-05-04 11:20 38.43726 13.31702 13678 ft 350 kts 20°
2026-05-04 11:20 38.45989 13.32911 14561 ft 355 kts 20°
2026-05-04 11:22 38.62455 13.41744 20192 ft 382 kts 18°
2026-05-04 11:22 38.64908 13.43060 20903 ft 386 kts 18°
2026-05-04 11:23 38.67398 13.44396 21555 ft 391 kts 18°
2026-05-04 11:23 38.69922 13.45752 22252 ft 395 kts 18°
2026-05-04 11:24 38.85503 13.54148 26126 ft 416 kts 16°
2026-05-04 11:25 38.88195 13.55489 26759 ft 417 kts 14°
2026-05-04 11:25 38.90934 13.56735 27342 ft 419 kts 13°
2026-05-04 11:25 38.93705 13.57947 27999 ft 420 kts 12°
2026-05-04 11:26 38.99286 13.60368 29112 ft 427 kts 12°
2026-05-04 11:27 39.18806 13.69088 33807 ft 413 kts 11°
2026-05-04 11:28 39.21493 13.70296 34327 ft 412 kts 11°
2026-05-04 11:28 39.24193 13.71516 34894 ft 409 kts 11°
2026-05-04 11:28 39.26879 13.72729 35299 ft 410 kts 12°
2026-05-04 11:28 39.29582 13.73948 35672 ft 411 kts 12°
2026-05-04 11:29 39.32278 13.75165 36073 ft 411 kts 12°
2026-05-04 11:29 39.34950 13.76372 36448 ft 412 kts 12°
2026-05-04 11:29 39.37670 13.77602 36764 ft 414 kts 12°
2026-05-04 11:29 39.40382 13.78834 37145 ft 413 kts 12°
2026-05-04 11:33 39.77931 13.96029 37164 ft 411 kts 12°
2026-05-04 11:33 39.83324 13.98519 37154 ft 410 kts 12°
2026-05-04 11:34 39.88690 14.01001 37155 ft 411 kts 12°
2026-05-04 11:34 39.94098 14.03499 37156 ft 415 kts 12°
2026-05-04 11:35 39.99581 14.06034 37154 ft 423 kts 12°
2026-05-04 11:35 40.05174 14.08627 37034 ft 433 kts 12°
2026-05-04 11:36 40.08044 14.09953 36499 ft 446 kts 13°
2026-05-04 11:36 40.11021 14.11328 36080 ft 448 kts 13°
2026-05-04 11:36 40.13888 14.12670 35880 ft 438 kts 13°
2026-05-04 11:36 40.16745 14.14015 35749 ft 431 kts 13°
2026-05-04 11:37 40.22317 14.16634 36194 ft 423 kts 13°
2026-05-04 11:37 40.25032 14.17906 36955 ft 416 kts 12°
2026-05-04 11:37 40.27768 14.19183 37131 ft 420 kts 12°
2026-05-04 11:38 40.33221 14.21731 37154 ft 413 kts 12°
2026-05-04 11:38 40.38635 14.24267 37147 ft 414 kts 12°
2026-05-04 11:39 40.44059 14.26810 37151 ft 414 kts 13°
2026-05-04 11:41 40.62989 14.36297 37153 ft 421 kts 19°
2026-05-04 11:41 40.68252 14.39753 37146 ft 422 kts 20°
2026-05-04 11:42 40.73477 14.43206 37149 ft 422 kts 20°
2026-05-04 11:42 40.78754 14.46656 37155 ft 424 kts 20°
2026-05-04 11:43 40.84027 14.50087 37149 ft 423 kts 20°
2026-05-04 11:43 40.89330 14.53539 37163 ft 424 kts 20°
2026-05-04 11:44 40.94619 14.56974 37155 ft 424 kts 20°
2026-05-04 11:44 40.99905 14.60418 37162 ft 424 kts 20°
2026-05-04 11:45 41.05200 14.63866 37149 ft 425 kts 20°
2026-05-04 11:45 41.10519 14.67337 37139 ft 423 kts 21°
2026-05-04 11:46 41.15798 14.70787 37183 ft 424 kts 21°
2026-05-04 11:46 41.18460 14.72528 36825 ft 428 kts 21°
2026-05-04 11:46 41.21073 14.74244 37115 ft 425 kts 21°
2026-05-04 11:47 41.26421 14.77756 37139 ft 428 kts 21°
2026-05-04 11:47 41.31755 14.81270 37146 ft 426 kts 21°
2026-05-04 11:48 41.37062 14.84769 37143 ft 427 kts 21°
2026-05-04 11:48 41.42382 14.88280 37141 ft 426 kts 21°
2026-05-04 11:49 41.47673 14.91770 37143 ft 427 kts 21°
2026-05-04 11:49 41.53006 14.95306 37140 ft 428 kts 22°
2026-05-04 11:50 41.58310 14.98829 37129 ft 428 kts 22°
2026-05-04 11:50 41.63630 15.02371 37125 ft 427 kts 22°
2026-05-04 11:51 41.68963 15.05931 37122 ft 428 kts 22°
2026-05-04 11:51 41.74273 15.09477 37119 ft 426 kts 22°
2026-05-04 11:52 41.79573 15.13023 37112 ft 428 kts 22°
2026-05-04 11:52 41.84909 15.16598 37111 ft 428 kts 22°
2026-05-04 11:53 41.90209 15.20158 37103 ft 429 kts 22°
2026-05-04 11:53 41.95528 15.23738 37105 ft 429 kts 22°
2026-05-04 11:55 42.16747 15.38085 37102 ft 427 kts 22°
2026-05-04 11:56 42.22038 15.41676 37105 ft 427 kts 22°
2026-05-04 11:56 42.27344 15.45283 37104 ft 428 kts 22°
2026-05-04 11:57 42.32651 15.48901 37104 ft 427 kts 22°
2026-05-04 11:57 42.37949 15.52519 37107 ft 427 kts 22°
2026-05-04 11:58 42.43255 15.56148 37107 ft 427 kts 22°
2026-05-04 11:58 42.48553 15.59779 37109 ft 426 kts 22°
2026-05-04 11:59 42.53841 15.63409 37108 ft 426 kts 22°
2026-05-04 11:59 42.59102 15.67028 37108 ft 428 kts 23°
2026-05-04 12:00 42.64410 15.70689 37110 ft 427 kts 23°
2026-05-04 12:00 42.69720 15.74278 37109 ft 425 kts 20°
2026-05-04 12:01 42.75205 15.77132 37112 ft 422 kts 15°
2026-05-04 12:02 42.94732 15.85697 37113 ft 421 kts 14°
2026-05-04 12:03 43.00310 15.88187 37121 ft 423 kts 14°
2026-05-04 12:03 43.05877 15.90685 37128 ft 423 kts 14°
2026-05-04 12:04 43.11464 15.93200 37127 ft 422 kts 14°
2026-05-04 12:04 43.17047 15.95717 37126 ft 422 kts 14°
2026-05-04 12:05 43.22609 15.98230 37121 ft 421 kts 14°
2026-05-04 12:05 43.28165 16.00743 37123 ft 422 kts 14°
2026-05-04 12:06 43.33698 16.03252 37123 ft 421 kts 14°
2026-05-04 12:06 43.39268 16.05784 37123 ft 420 kts 14°
2026-05-04 12:07 43.44801 16.08303 37116 ft 419 kts 14°
2026-05-04 12:07 43.50320 16.10822 37112 ft 418 kts 14°
2026-05-04 12:08 43.55820 16.13337 37112 ft 417 kts 14°
2026-05-04 12:08 43.61314 16.15853 37118 ft 417 kts 14°
2026-05-04 12:09 43.66799 16.18367 37120 ft 417 kts 14°
2026-05-04 12:09 43.72303 16.20896 37125 ft 417 kts 14°
2026-05-04 12:10 43.77813 16.23432 37127 ft 417 kts 14°
2026-05-04 12:10 43.83314 16.25972 37126 ft 417 kts 15°
2026-05-04 12:11 43.88799 16.28509 37127 ft 416 kts 15°
2026-05-04 12:11 43.94211 16.30999 38143 ft 401 kts 14°
2026-05-04 12:12 43.96913 16.32176 37860 ft 414 kts 14°
2026-05-04 12:12 43.99663 16.33412 37300 ft 416 kts 14°
2026-05-04 12:12 44.02343 16.34669 37155 ft 409 kts 15°
2026-05-04 12:12 44.05032 16.35950 37149 ft 411 kts 15°
2026-05-04 12:14 44.26937 16.46273 37890 ft 417 kts 15°
2026-05-04 12:15 44.29719 16.47578 38125 ft 421 kts 15°
2026-05-04 12:15 44.32464 16.48867 38151 ft 418 kts 15°
2026-05-04 12:15 44.37764 16.51364 38156 ft 411 kts 15°
2026-05-04 12:16 44.43205 16.53927 38145 ft 414 kts 15°
2026-05-04 12:16 44.48662 16.56503 38139 ft 414 kts 15°
2026-05-04 12:17 44.54123 16.59090 38132 ft 413 kts 15°
2026-05-04 12:17 44.59530 16.61654 38127 ft 412 kts 15°
2026-05-04 12:18 44.64979 16.64243 38112 ft 413 kts 15°
2026-05-04 12:18 44.70396 16.66822 38108 ft 413 kts 16°
2026-05-04 12:19 44.75812 16.69406 38095 ft 414 kts 16°
2026-05-04 12:19 44.81280 16.72021 38087 ft 414 kts 16°
2026-05-04 12:20 44.86700 16.74616 38080 ft 413 kts 16°
2026-05-04 12:20 44.92155 16.77234 38079 ft 413 kts 16°
2026-05-04 12:21 44.97581 16.79843 38084 ft 413 kts 16°
2026-05-04 12:21 45.03009 16.82458 38077 ft 413 kts 17°
2026-05-04 12:22 45.08429 16.85073 38076 ft 414 kts 17°
2026-05-04 12:22 45.13898 16.87718 38075 ft 415 kts 17°
2026-05-04 12:23 45.19339 16.90355 38068 ft 414 kts 17°
2026-05-04 12:23 45.24754 16.92985 38058 ft 413 kts 17°
2026-05-04 12:24 45.30219 16.95647 38057 ft 414 kts 17°
2026-05-04 12:24 45.35628 16.98285 38061 ft 414 kts 17°
2026-05-04 12:25 45.41078 17.00948 38062 ft 415 kts 17°
2026-05-04 12:25 45.46543 17.03624 38066 ft 415 kts 17°
2026-05-04 12:26 45.51967 17.06285 38066 ft 415 kts 17°
2026-05-04 12:26 45.57418 17.08966 38067 ft 415 kts 17°
2026-05-04 12:27 45.62883 17.11658 38068 ft 415 kts 17°
2026-05-04 12:27 45.68337 17.14351 38068 ft 414 kts 17°
2026-05-04 12:28 45.73780 17.17043 38063 ft 416 kts 17°
2026-05-04 12:28 45.79242 17.19749 38062 ft 416 kts 17°
2026-05-04 12:29 45.84708 17.22464 38060 ft 415 kts 17°
2026-05-04 12:29 45.90137 17.25167 38054 ft 415 kts 17°
2026-05-04 12:30 45.95584 17.27885 38059 ft 415 kts 17°
2026-05-04 12:30 46.01038 17.30555 38052 ft 415 kts 15°
2026-05-04 12:31 46.06632 17.32806 38053 ft 416 kts 13°
2026-05-04 12:31 46.12188 17.34887 38053 ft 416 kts 13°
2026-05-04 12:32 46.20565 17.38092 38056 ft 415 kts 13°
2026-05-04 12:33 46.26123 17.40262 38051 ft 415 kts 13°
2026-05-04 12:33 46.31716 17.42465 38045 ft 415 kts 13°
2026-05-04 12:34 46.37273 17.44662 38054 ft 415 kts 13°
2026-05-04 12:34 46.42835 17.46868 38051 ft 416 kts 13°
2026-05-04 12:35 46.48407 17.49083 38045 ft 416 kts 13°
2026-05-04 12:35 46.53954 17.51291 38050 ft 416 kts 13°
2026-05-04 12:36 46.59523 17.53514 38042 ft 417 kts 13°
2026-05-04 12:36 46.65109 17.55749 38040 ft 416 kts 13°
2026-05-04 12:37 46.70678 17.57981 38036 ft 416 kts 13°
2026-05-04 12:37 46.76252 17.60220 38037 ft 416 kts 13°
2026-05-04 12:38 46.81803 17.62454 38038 ft 416 kts 13°
2026-05-04 12:38 46.87401 17.64712 38038 ft 418 kts 13°
2026-05-04 12:39 46.92995 17.66974 38046 ft 417 kts 14°
2026-05-04 12:39 46.98584 17.69238 38044 ft 417 kts 14°
2026-05-04 12:40 47.04172 17.71506 38049 ft 417 kts 14°
2026-05-04 12:40 47.09769 17.73783 38047 ft 417 kts 14°
2026-05-04 12:41 47.15329 17.76051 38048 ft 418 kts 14°
2026-05-04 12:41 47.20936 17.78342 38054 ft 419 kts 14°
2026-05-04 12:42 47.26522 17.80629 38057 ft 419 kts 14°
2026-05-04 12:42 47.32154 17.82941 38054 ft 419 kts 14°
2026-05-04 12:43 47.37738 17.85238 38055 ft 419 kts 14°
2026-05-04 12:43 47.43287 17.87888 38054 ft 420 kts 18°
2026-05-04 12:44 47.48735 17.90975 38049 ft 421 kts 19°
2026-05-04 12:44 47.54188 17.94110 38046 ft 421 kts 19°
2026-05-04 12:45 47.59642 17.97207 38050 ft 421 kts 19°
2026-05-04 12:45 47.65107 18.00278 38048 ft 421 kts 19°
2026-05-04 12:46 47.70579 18.03342 38048 ft 422 kts 19°
2026-05-04 12:46 47.76016 18.06479 38045 ft 422 kts 22°
2026-05-04 12:47 47.81255 18.10513 38044 ft 424 kts 28°
2026-05-04 12:47 47.86270 18.15082 38048 ft 424 kts 30°
2026-05-04 12:48 47.91249 18.19714 38047 ft 424 kts 30°
2026-05-04 12:48 47.96256 18.24334 38046 ft 425 kts 29°
2026-05-04 12:49 48.01287 18.28943 38048 ft 424 kts 29°
2026-05-04 12:49 48.06306 18.33526 38049 ft 424 kts 29°
2026-05-04 12:50 48.11324 18.38110 38050 ft 424 kts 29°
2026-05-04 12:50 48.16350 18.42712 38051 ft 424 kts 29°
2026-05-04 12:51 48.21337 18.47284 38050 ft 424 kts 29°
2026-05-04 12:51 48.26352 18.51893 38052 ft 424 kts 29°
2026-05-04 12:52 48.31377 18.56523 38057 ft 424 kts 29°
2026-05-04 12:52 48.36417 18.61174 38066 ft 427 kts 29°
2026-05-04 12:53 48.41443 18.65825 38069 ft 425 kts 30°
2026-05-04 12:53 48.46439 18.70462 37777 ft 416 kts 30°
2026-05-04 12:53 48.48878 18.72731 37374 ft 414 kts 30°
2026-05-04 12:54 48.51299 18.74984 36873 ft 413 kts 30°
2026-05-04 12:54 48.53742 18.77259 36351 ft 413 kts 30°
2026-05-04 12:54 48.56203 18.79553 35861 ft 414 kts 30°
2026-05-04 12:54 48.58651 18.81837 35374 ft 415 kts 30°
2026-05-04 12:55 48.61078 18.84104 34807 ft 417 kts 30°
2026-05-04 12:55 48.63564 18.86427 34158 ft 420 kts 30°
2026-05-04 12:55 48.66019 18.88725 33513 ft 422 kts 30°
2026-05-04 12:55 48.68516 18.91066 32857 ft 424 kts 30°
2026-05-04 12:56 48.71030 18.93425 32203 ft 426 kts 30°
2026-05-04 12:56 48.73559 18.95802 31557 ft 428 kts 30°
2026-05-04 12:56 48.76096 18.98189 30908 ft 429 kts 30°
2026-05-04 12:56 48.78609 19.00558 30268 ft 430 kts 30°
2026-05-04 12:57 48.81142 19.02947 29621 ft 431 kts 30°
2026-05-04 12:57 48.83671 19.05336 28967 ft 433 kts 31°
2026-05-04 12:57 48.86232 19.07758 28307 ft 434 kts 31°
2026-05-04 12:57 48.88783 19.10174 27651 ft 435 kts 31°
2026-05-04 12:58 48.91363 19.12620 26989 ft 435 kts 31°
2026-05-04 12:58 48.93930 19.15057 26333 ft 436 kts 31°
2026-05-04 12:58 48.96475 19.17474 25683 ft 436 kts 31°
2026-05-04 12:58 48.99037 19.19912 25024 ft 436 kts 31°
2026-05-04 12:59 49.01597 19.22351 24345 ft 436 kts 31°
2026-05-04 12:59 49.04167 19.24802 23668 ft 435 kts 31°
2026-05-04 12:59 49.06708 19.27227 23009 ft 435 kts 31°
2026-05-04 12:59 49.09282 19.29687 22364 ft 434 kts 31°
2026-05-04 13:00 49.11771 19.32070 22033 ft 418 kts 31°
2026-05-04 13:00 49.14173 19.34376 21969 ft 397 kts 31°
2026-05-04 13:00 49.16466 19.36579 21845 ft 382 kts 31°
2026-05-04 13:00 49.18709 19.38734 21369 ft 381 kts 31°
2026-05-04 13:01 49.20936 19.40874 20848 ft 381 kts 31°
2026-05-04 13:01 49.23182 19.43035 20324 ft 380 kts 31°
2026-05-04 13:01 49.25422 19.45192 19769 ft 381 kts 31°
2026-05-04 13:01 49.27665 19.47354 19124 ft 384 kts 31°
2026-05-04 13:02 49.29927 19.49537 18482 ft 386 kts 31°
2026-05-04 13:02 49.32202 19.51735 17842 ft 388 kts 31°
2026-05-04 13:02 49.34477 19.53936 17202 ft 390 kts 31°
2026-05-04 13:02 49.36775 19.56162 16566 ft 391 kts 31°
2026-05-04 13:03 49.39066 19.58384 15931 ft 392 kts 31°
2026-05-04 13:03 49.41374 19.60625 15316 ft 392 kts 31°
2026-05-04 13:03 49.43640 19.62828 14981 ft 384 kts 31°
2026-05-04 13:03 49.45863 19.64983 14726 ft 374 kts 31°
2026-05-04 13:04 49.48096 19.66964 14467 ft 366 kts 28°
2026-05-04 13:04 49.50315 19.68751 14216 ft 358 kts 27°
2026-05-04 13:04 49.52514 19.70459 13962 ft 351 kts 26°
2026-05-04 13:04 49.54682 19.72142 13718 ft 344 kts 26°
2026-05-04 13:05 49.56784 19.73796 13458 ft 338 kts 27°
2026-05-04 13:05 49.58849 19.75444 13115 ft 336 kts 27°
2026-05-04 13:05 49.60934 19.77126 12763 ft 334 kts 27°
2026-05-04 13:05 49.62967 19.78776 12286 ft 336 kts 27°
2026-05-04 13:06 49.65041 19.80463 11796 ft 338 kts 27°
2026-05-04 13:06 49.67124 19.82159 11297 ft 340 kts 27°
2026-05-04 13:06 49.69235 19.83879 10793 ft 341 kts 27°
2026-05-04 13:06 49.71334 19.85591 10294 ft 343 kts 27°
2026-05-04 13:07 49.73394 19.87275 10065 ft 334 kts 27°
2026-05-04 13:07 49.75392 19.88909 10052 ft 315 kts 27°
2026-05-04 13:07 49.77289 19.90462 9953 ft 302 kts 27°
2026-05-04 13:07 49.79136 19.91974 9578 ft 300 kts 27°
2026-05-04 13:08 49.80951 19.93460 9200 ft 298 kts 28°
2026-05-04 13:08 49.82786 19.94961 8801 ft 296 kts 28°
2026-05-04 13:08 49.84598 19.96445 8409 ft 295 kts 28°
2026-05-04 13:08 49.86413 19.97932 8009 ft 293 kts 28°
2026-05-04 13:09 49.88209 19.99406 7618 ft 292 kts 28°
2026-05-04 13:09 49.89996 20.00873 7228 ft 290 kts 28°
2026-05-04 13:09 49.91751 20.02315 6910 ft 286 kts 28°
2026-05-04 13:09 49.93494 20.03750 6613 ft 281 kts 28°
2026-05-04 13:10 49.95213 20.05168 6320 ft 276 kts 28°
2026-05-04 13:10 49.96894 20.06558 6022 ft 272 kts 28°
2026-05-04 13:10 49.98544 20.07925 5730 ft 268 kts 28°
2026-05-04 13:10 50.00184 20.09283 5442 ft 265 kts 28°
2026-05-04 13:11 50.01802 20.10617 5225 ft 258 kts 26°
2026-05-04 13:11 50.03446 20.11633 5020 ft 253 kts 12°
2026-05-04 13:11 50.05164 20.11665 4830 ft 247 kts 348°
2026-05-04 13:11 50.06824 20.11030 4647 ft 242 kts 343°
2026-05-04 13:12 50.08427 20.10356 4465 ft 234 kts 343°
2026-05-04 13:12 50.09911 20.09469 4273 ft 223 kts 330°
2026-05-04 13:12 50.11008 20.07931 4129 ft 210 kts 299°
2026-05-04 13:12 50.11393 20.05832 4025 ft 196 kts 270°
2026-05-04 13:13 50.11207 20.03775 3832 ft 192 kts 258°
2026-05-04 13:13 50.10949 20.01734 3539 ft 194 kts 259°
2026-05-04 13:13 50.10687 19.99675 3274 ft 195 kts 259°
2026-05-04 13:13 50.10411 19.97609 3015 ft 192 kts 258°
2026-05-04 13:14 50.10138 19.95598 2763 ft 190 kts 258°
2026-05-04 13:14 50.09864 19.93595 2513 ft 188 kts 258°
2026-05-04 13:14 50.09590 19.91609 2268 ft 186 kts 258°
2026-05-04 13:14 50.09325 19.89684 2051 ft 177 kts 259°
2026-05-04 13:15 50.09072 19.87859 1810 ft 166 kts 259°
2026-05-04 13:15 50.08839 19.86165 1574 ft 157 kts 259°
2026-05-04 13:15 50.08615 19.84536 1399 ft 151 kts 258°
2026-05-04 13:15 50.08395 19.82953 1242 ft 149 kts 258°
2026-05-04 13:16 50.08174 19.81376 1034 ft 148 kts 258°
2026-05-04 13:16 50.07960 19.79819 820 ft 147 kts 257°
2026-05-04 13:16 50.07781 19.78520 803 ft 84 kts 258°
2026-05-04 13:16 50.07686 19.77835 803 ft 54 kts 257°
2026-05-04 13:17 50.07612 19.77328 803 ft 42 kts 258°
2026-05-04 13:17 50.07561 19.76981 803 ft 22 kts 258°
2026-05-04 13:17 50.07513 19.76851 803 ft 11 kts 194°
2026-05-04 13:17 50.07434 19.76867 803 ft 11 kts 168°
2026-05-04 13:18 50.07360 19.76892 803 ft 10 kts 168°
2026-05-04 13:18 50.07310 19.76951 803 ft 9 kts 92°
2026-05-04 13:18 50.07325 19.77079 803 ft 15 kts 78°
2026-05-04 13:18 50.07352 19.77276 803 ft 22 kts 77°
2026-05-04 13:19 50.07391 19.77556 803 ft 29 kts 78°
2026-05-04 13:19 50.07419 19.77763 803 ft 28 kts 78°
2026-05-04 13:19 50.07475 19.78157 803 ft 27 kts 78°
2026-05-04 13:19 50.07515 19.78446 803 ft 26 kts 78°
2026-05-04 13:20 50.07554 19.78722 803 ft 25 kts 78°
2026-05-04 13:20 50.07591 19.78989 803 ft 24 kts 78°
2026-05-04 13:20 50.07626 19.79248 803 ft 24 kts 78°
2026-05-04 13:20 50.07661 19.79497 803 ft 23 kts 78°
2026-05-04 13:21 50.07681 19.79668 803 ft 9 kts 108°
2026-05-04 13:21 50.07619 19.79705 803 ft 9 kts 167°
2026-05-04 13:21 50.07540 19.79734 803 ft 14 kts 167°
2026-05-04 13:21 50.07434 19.79771 802 ft 15 kts 167°
2026-05-04 13:22 50.07375 19.79836 802 ft 10 kts 91°
2026-05-04 13:22 50.07354 19.79907 802 ft 6 kts 156°
2026-05-04 13:22 50.07320 19.79920 802 ft 2 kts 167°
2026-05-04 13:22 50.07317 19.79921 802 ft 0 kts 167°